Location: Coffee Creek Observatory
(38.8077°N, 94.7179°W)
Time: 22:41:12
(UTC-06:00)

Daily predictions for brighter satellites

Satellite Brightness Start Highest point End
(mag) Time Altitude Azimuth Time Altitude Azimuth Time Altitude Azimuth
CENTAUR R/B 2.7 17:42:50 10° SW 17:48:49 82° WNW 17:55:38 10° NNE
Cosmos 1937 Rocket 3.6 17:45:09 10° NNW 17:50:22 87° WSW 17:55:35 10° SSE
OAO 3 Rocket 4.4 17:46:09 10° W 17:50:47 42° SSW 17:55:22 10° ESE
Cosmos 1766 Rocket 4.0 17:47:23 10° SSW 17:51:49 69° W 17:56:16 10° N
SMAP 3.1 17:48:04 10° SSE 17:52:43 88° ENE 17:57:24 10° NNW
Cosmos 2084 3.8 17:50:15 10° S 17:53:54 38° ESE 17:57:29 10° NE
Abrixas rocket 3.3 17:54:22 10° WNW 17:57:36 49° SW 18:00:49 10° SE
Cosmos 44 Rocket 3.7 17:53:27 10° SSW 17:58:26 52° ESE 18:03:22 10° NE
Meteor 2-2 Rocket 4.3 17:52:54 10° N 17:58:27 57° ENE 18:03:59 10° SSE
Lacrosse 5 3.9 17:55:41 10° WNW 17:59:07 18° NNW 18:02:34 10° NNE
Cosmos 1844 Rocket 2.7 17:53:37 10° NNW 17:59:16 65° ENE 18:04:50 10° SSE
Cosmos 1328 4.4 17:56:30 10° SSE 18:00:05 34° E 18:03:42 10° NNE
Meteor 1-28 Rocket 4.3 17:57:19 10° NE 18:00:22 24° E 18:03:25 10° SSE
CZ-3A R/B 3.9 17:56:00 10° NW 18:00:30 24° NNE 18:04:32 10° E
Aureole 2 Rocket 4.4 18:00:28 10° SE 18:02:30 15° E 18:04:38 10° ENE
YAOGAN 1 2.7 17:58:42 10° S 18:03:02 82° W 18:07:23 10° NNW
COSMO-SKYMED 1 3.0 17:58:55 10° NNE 18:03:04 43° E 18:07:12 10° S
CZ-2C R/B 3.0 17:58:17 10° S 18:03:17 64° WSW 18:08:10 10° NNW
Cosmos 2333 4.3 17:57:58 10° SSW 18:03:35 82° WNW 18:09:12 10° NNE
Cosmos 2228 Rocket 3.0 18:04:20 10° N 18:08:46 85° E 18:13:12 10° S
Cosmos 2360 Rocket 4.0 18:07:17 10° WSW 18:12:04 28° WNW 18:16:51 10° N
Cosmos 1980 4.0 18:07:36 10° S 18:13:02 49° ESE 18:18:30 10° NNE
SJ-6B 4.2 18:10:17 10° ESE 18:13:16 20° ENE 18:16:18 10° NNE
Milstar 3 4.1 18:08:28 10° WSW 18:14:36 34° S 18:20:49 10° SE
Cosmos 389 Rocket 4.3 18:14:35 10° NNW 18:17:55 36° W 18:21:11 10° SSW
Cosmos 2058 3.5 18:16:14 10° SSE 18:19:57 34° E 18:23:40 10° NNE
Cosmos 2333 Rocket 2.2 18:19:49 10° SSW 18:25:27 76° ESE 18:31:06 10° NNE
Cosmos 1763 Rocket 4.5 18:21:29 10° SW 18:26:31 47° WNW 18:31:32 10° N
Atlas Centaur 2 4.1 18:24:11 10° WSW 18:27:38 18° SSW 18:30:39 10° SSE
Cosmos 1703 4.4 18:24:55 10° SE 18:27:59 22° E 18:29:16 19° ENE
Meteor 2-10 4.1 18:30:38 10° N 18:35:33 48° ENE 18:40:34 10° SSE
Cosmos 372 Rocket 4.1 18:30:46 10° N 18:35:41 46° ENE 18:40:33 10° SE
METEOR-M 4.3 18:32:19 10° SE 18:37:26 49° ENE 18:42:36 10° N
Cosmos 2219 Rocket 2.6 18:33:15 10° SSW 18:38:50 65° WNW 18:44:27 10° NNE
Meteor 1-27 4.3 18:36:45 10° N 18:42:31 61° ENE 18:48:16 10° SSE
Cosmos 1340 Rocket 3.0 18:38:49 10° S 18:42:37 47° E 18:45:23 17° NNE
BREEZE-M DEB (TANK) 2.4 18:40:29 10° WSW 18:43:11 37° NNW 18:43:55 28° NNE
Cosmos 1356 Rocket 4.4 18:40:49 10° SSE 18:43:35 24° ESE 18:43:35 24° ESE
Cosmos 2278 Rocket 2.1 18:40:06 10° NNW 18:45:47 68° ENE 18:51:25 10° SSE
Cosmos 2151 3.0 18:41:36 10° S 18:45:48 82° W 18:50:01 10° N
Abrixas 2.7 18:44:04 10° SW 18:46:54 48° SE 18:47:20 43° ESE
Cosmos 540 Rocket 3.4 18:41:45 10° SSW 18:46:56 90° WNW 18:52:08 10° NNE
SKYMED 2 4.4 18:46:57 10° N 18:51:10 51° WNW 18:55:22 10° SSW
SL-14 R/B 3.5 18:47:27 10° SSW 18:51:20 68° W 18:55:18 10° N
Cosmos 783 Rocket 4.4 18:46:38 10° SSW 18:51:55 77° ESE 18:56:57 12° NNE
USA 215 3.2 18:46:42 10° SE 18:53:13 75° NE 18:59:47 10° NW
Cosmos 1626 3.0 18:49:55 10° SSE 18:52:36 31° ESE 18:52:36 31° ESE
Cosmos 1805 Rocket 3.7 18:49:43 10° S 18:54:01 52° E 18:57:08 18° NNE
Cosmos 1844 4.5 18:51:10 10° NNW 18:56:48 56° WSW 19:02:26 10° S
Cosmos 1151 Rocket 3.7 18:53:35 10° NNW 18:57:47 56° W 19:01:58 10° S
Haruka 4.3 18:58:49 10° WSW 19:02:57 46° SSE 19:09:16 22° ESE
NOAA 12 4.1 18:59:19 10° SSE 19:04:33 86° WSW 19:09:50 10° NNW
Cosmos 1125 Rocket 3.9 19:00:39 10° NNW 19:05:48 63° WSW 19:10:55 10° S
Timation 1 Rocket 4.4 19:00:10 10° NNW 19:06:04 53° ENE 19:10:29 18° SE
BREEZE M DEB (TANK) 3.2 19:04:42 10° NW 19:05:47 21° NNW 19:05:47 21° NNW
ALOS 2.4 19:04:18 10° SSE 19:08:46 48° ENE 19:13:15 10° N
Cosmos 2237 Rocket 2.7 19:04:01 10° SW 19:09:33 60° WNW 19:14:53 11° NNE
Cosmos 1300 4.2 19:06:48 10° NNW 19:10:22 38° W 19:13:55 10° SSW
Cosmos 44 4.0 19:06:39 10° SW 19:11:50 56° WNW 19:15:09 21° NNE
Cosmos 1726 3.9 19:08:38 10° NNW 19:12:04 34° W 19:15:29 10° SSW
SL-16 R/B 2.1 19:08:36 10° S 19:14:09 63° ESE 19:16:19 37° NE
Spot 2 Rocket 3.5 19:09:22 10° SSE 19:14:15 52° ENE 19:19:09 10° N
BREEZE-M DEB (TANK) 4.5 19:15:31 10° SW 19:15:43 13° SW 19:15:43 13° SW
Sich 1 3.0 19:13:36 10° S 19:17:56 62° E 19:17:56 62° E
Lacrosse 5 rocket 1.9 19:16:39 10° NW 19:19:24 41° N 19:19:24 41° N
Cosmos 1633 Rocket 3.5 19:16:47 10° S 19:20:04 45° SE 19:20:04 45° SE
FREGAT/IRIS 4.0 19:18:14 10° S 19:25:11 - NNW 19:20:10 33° SSW
OTV 4 2.1 19:18:34 10° W 19:20:41 32° SW 19:20:41 32° SW
Cosmos 1538 Rocket 3.9 19:16:31 10° S 19:21:42 63° ESE 19:22:41 52° ENE
Transit 2A Rocket 4.4 19:18:07 10° NNW 19:22:27 89° SW 19:23:23 55° SSE
Cosmos 2297 3.6 19:19:10 10° NNW 19:24:51 67° ENE 19:27:01 38° SE
SL-19 R/B 4.3 19:23:40 10° SSE 19:29:44 88° WSW 19:35:26 10° NNW
Resurs 01 Rocket 2.4 19:31:56 39° N 19:31:56 39° N 19:34:47 10° N
USA 229 DEB 4.0 19:25:32 10° S 19:31:47 43° ESE 19:31:47 43° ESE
USA 229 4.0 19:25:39 10° S 19:31:50 43° ESE 19:31:50 43° ESE
Aureole 2 Rocket 4.3 19:34:19 10° SW 19:37:36 32° WNW 19:38:34 28° NW
Cosmos 1707 Rocket 4.0 19:39:28 10° NNW 19:43:43 57° W 19:47:57 10° S
Cosmos 1461 3.9 19:44:01 10° SW 19:47:02 44° WSW 19:47:02 44° WSW
Cosmos 1666 Rocket 4.4 19:48:33 10° SSW 19:52:39 47° W 19:52:39 47° W
H-2A ROCKET BODY 3.5 19:45:56 10° WSW 20:01:21 39° SSW 20:02:29 36° S
FENGYUN 3A 4.4 19:59:54 10° S 20:05:04 50° W 20:10:17 10° NNW
SL-16 R/B 4.5 20:54:45 10° W 20:58:16 19° WNW 20:58:16 19° WNW
